This demonstration page uses our WeatherBlox Daily Observations layout. Learn more.

38.89511, -77.03637

Hourly Observations for November 23, 2017

Temp ( °F °C ) Dew Point ( °F °C ) Humidity (%) Winds ( mph kmh ) Pressure ( in mb ) Visibility ( mi km ) Precip ( " mm )
12:52 am 00:52 Mostly Clear 36 2.2 24 -4.4 62 62 NW 7 11 30.18 1022 10 16.09344 0 0
1:52 am 01:52 Mostly Clear 36 2.2 24 -4.4 62 62 NNW 7 11 30.18 1022 10 16.09344 0 0
2:52 am 02:52 Mostly Clear 35 1.7 24 -4.4 64 64 NNW 7 11 30.18 1022 10 16.09344 0 0
3:52 am 03:52 Mostly Clear 34 1.1 23 -5 64 64 NNW 8 13 30.15 1021 10 16.09344 0 0
4:52 am 04:52 Mostly Clear 32 0 23 -5 69 69 NNW 7 11 30.18 1022 10 16.09344 0 0
5:52 am 05:52 Mostly Clear 33 0.6 22 -5.6 64 64 NNW 8 13 30.18 1022 10 16.09344 0 0
6:52 am 06:52 Partly Cloudy 32 0 23 -5 69 69 NNW 8 13 30.18 1022 10 16.09344 0 0
7:52 am 07:52 Partly Cloudy 34 1.1 22 -5.6 61 61 NNW 10 17 30.21 1023 10 16.09344 0 0
8:52 am 08:52 Partly Cloudy 35 1.7 22 -5.6 59 59 NNW 8 13 30.21 1023 10 16.09344 0 0
9:52 am 09:52 Partly Cloudy 39 3.9 24 -4.4 55 55 N 9 15 30.18 1022 10 16.09344 0 0
10:52 am 10:52 Mostly Sunny 41 5 24 -4.4 51 51 N 7 11 30.18 1022 10 16.09344 0 0
11:52 am 11:52 Mostly Sunny 42 5.6 22 -5.6 45 45 WNW 9 15 30.12 1020 10 16.09344 0 0
12:52 pm 12:52 Mostly Sunny 45 7.2 22 -5.6 40 40 Calm 30.09 1019 10 16.09344 0 0
1:52 pm 13:52 Mostly Sunny 45 7.2 21 -6.1 39 39 N 3 6 30.09 1019 10 16.09344 0 0
2:52 pm 14:52 Mostly Sunny 46 7.8 22 -5.6 38 38 Calm 30.06 1018 10 16.09344 0 0
3:52 pm 15:52 Mostly Sunny 45 7.2 21 -6.1 39 39 Calm 30.06 1018 10 16.09344 0 0
4:52 pm 16:52 Mostly Clear 43 6.1 21 -6.1 42 42 W 7 11 30.06 1018 10 16.09344 0 0
5:52 pm 17:52 Mostly Clear 42 5.6 21 -6.1 43 43 WNW 5 7 30.06 1018 10 16.09344 0 0
6:52 pm 18:52 Clear 41 5 27 -2.8 57 57 SSW 3 6 30.06 1018 10 16.09344 0 0
7:52 pm 19:52 Clear 39 3.9 27 -2.8 62 62 S 3 6 30.06 1018 10 16.09344 0 0
8:52 pm 20:52 Clear 38 3.3 26 -3.3 62 62 SW 3 6 30.06 1018 10 16.09344 0 0
9:52 pm 21:52 Clear 37 2.8 27 -2.8 67 67 SW 3 6 30.06 1018 10 16.09344 0 0
10:52 pm 22:52 Clear 38 3.3 27 -2.8 65 65 SW 5 7 30.06 1018 10 16.09344 0 0
11:52 pm 23:52 Clear 37 2.8 28 -2.2 70 70 Calm 30.06 1018 10 16.09344 0 0

Powered by AerisWeather